| time (UTC) | temp F | wind direction | speed MPH | gust MPH | rain 1hr in | rain 24hr in | rain mn in | humidity % | barometer mb |
| 20260904211525 | 77 | 209 | 2.0 | 8.0 | 0.00 | 0.00 | 0.00 | 50 | 1018.2 |
| 20260904210725 | 76 | 229 | 4.0 | 4.0 | 0.00 | 0.00 | 0.00 | 52 | 1018.2 |
| 20260904210325 | 76 | 63 | 0.0 | 3.0 | 0.00 | 0.00 | 0.00 | 51 | 1018.2 |
| 20260904205925 | 76 | 87 | 1.0 | 5.0 | 0.00 | 0.00 | 0.00 | 51 | 1018.2 |
| 20260904205525 | 76 | 270 | 1.0 | 8.0 | 0.00 | 0.00 | 0.00 | 51 | 1018.2 |
| 20260904204724 | 75 | 0 | 2.0 | 4.0 | 0.00 | 0.00 | 0.00 | 51 | 1018.3 |
| 20260904204324 | 75 | 357 | 3.0 | 4.0 | 0.00 | 0.00 | 0.00 | 51 | 1018.2 |
| 20260904203924 | 75 | 67 | 3.0 | 5.0 | 0.00 | 0.00 | 0.00 | 52 | 1018.3 |
| 20260904203524 | 75 | 0 | 2.0 | 5.0 | 0.00 | 0.00 | 0.00 | 53 | 1018.4 |
| 20260904203124 | 75 | 216 | 5.0 | 6.0 | 0.00 | 0.00 | 0.00 | 53 | 1018.5 |
| 20260904202724 | 75 | 215 | 4.0 | 7.0 | 0.00 | 0.00 | 0.00 | 53 | 1018.5 |
| 20260904202323 | 74 | 222 | 3.0 | 4.0 | 0.00 | 0.00 | 0.00 | 54 | 1018.5 |
| 20260904201523 | 74 | 213 | 1.0 | 9.0 | 0.00 | 0.00 | 0.00 | 55 | 1018.4 |
| 20260904201123 | 74 | 225 | 0.0 | 3.0 | 0.00 | 0.00 | 0.00 | 56 | 1018.4 |
| 20260904200723 | 74 | 331 | 3.0 | 9.0 | 0.00 | 0.00 | 0.00 | 55 | 1018.4 |
| 20260904200323 | 74 | 45 | 2.0 | 6.0 | 0.00 | 0.00 | 0.00 | 55 | 1018.4 |
| 20260904195923 | 74 | 348 | 4.0 | 5.0 | 0.00 | 0.00 | 0.00 | 55 | 1018.5 |
| 20260904195522 | 73 | 220 | 4.0 | 7.0 | 0.00 | 0.00 | 0.00 | 56 | 1018.6 |
| 20260904195122 | 73 | 353 | 9.0 | 10.0 | 0.00 | 0.00 | 0.00 | 55 | 1018.4 |
| 20260904194722 | 73 | 218 | 6.0 | 7.0 | 0.00 | 0.00 | 0.00 | 56 | 1018.5 |
| 20260904193922 | 73 | 225 | 3.0 | 6.0 | 0.00 | 0.00 | 0.00 | 57 | 1018.5 |
| 20260904193522 | 72 | 211 | 5.0 | 7.0 | 0.00 | 0.00 | 0.00 | 55 | 1018.6 |
| 20260904193122 | 72 | 290 | 3.0 | 3.0 | 0.00 | 0.00 | 0.00 | 58 | 1018.5 |
| 20260904192721 | 72 | 90 | 0.0 | 5.0 | 0.00 | 0.00 | 0.00 | 58 | 1018.6 |
| 20260904192321 | 72 | 31 | 2.0 | 6.0 | 0.00 | 0.00 | 0.00 | 58 | 1018.7 |
| 20260904191921 | 72 | 49 | 3.0 | 6.0 | 0.00 | 0.00 | 0.00 | 59 | 1018.7 |
| 20260904191521 | 72 | 213 | 3.0 | 6.0 | 0.00 | 0.00 | 0.00 | 58 | 1018.8 |
| 20260904191121 | 72 | 229 | 4.0 | 7.0 | 0.00 | 0.00 | 0.00 | 58 | 1018.8 |
| 20260904190721 | 71 | 6 | 3.0 | 3.0 | 0.00 | 0.00 | 0.00 | 60 | 1018.9 |
| 20260904190321 | 71 | 229 | 2.0 | 4.0 | 0.00 | 0.00 | 0.00 | 59 | 1018.8 |
| 20260904185921 | 71 | 339 | 3.0 | 5.0 | 0.00 | 0.00 | 0.00 | 60 | 1019.0 |
| 20260904185521 | 71 | 227 | 3.0 | 6.0 | 0.00 | 0.00 | 0.00 | 60 | 1019.0 |
| 20260904184720 | 71 | 200 | 3.0 | 4.0 | 0.00 | 0.00 | 0.00 | 62 | 1019.0 |
| 20260904184320 | 70 | 213 | 4.0 | 4.0 | 0.00 | 0.00 | 0.00 | 62 | 1019.0 |
| 20260904183520 | 70 | 2 | 4.0 | 6.0 | 0.00 | 0.00 | 0.00 | 63 | 1019.0 |
| 20260904183120 | 70 | 317 | 3.0 | 3.0 | 0.00 | 0.00 | 0.00 | 62 | 1019.1 |
| 20260904182719 | 70 | 247 | 2.0 | 6.0 | 0.00 | 0.00 | 0.00 | 63 | 1019.1 |
| 20260904182319 | 70 | 12 | 1.0 | 3.0 | 0.00 | 0.00 | 0.00 | 63 | 1019.1 |
| 20260904181919 | 69 | 11 | 1.0 | 5.0 | 0.00 | 0.00 | 0.00 | 64 | 1019.1 |
| 20260904181520 | 69 | 40 | 1.0 | 5.0 | 0.00 | 0.00 | 0.00 | 62 | 1019.0 |
| 20260904181119 | 69 | 54 | 3.0 | 5.0 | 0.00 | 0.00 | 0.00 | 63 | 1019.0 |
| 20260904180719 | 69 | 238 | 5.0 | 6.0 | 0.00 | 0.00 | 0.00 | 63 | 1019.0 |
| 20260904180319 | 69 | 317 | 3.0 | 4.0 | 0.00 | 0.00 | 0.00 | 65 | 1019.0 |
| 20260904175918 | 69 | 315 | 3.0 | 7.0 | 0.00 | 0.00 | 0.00 | 65 | 1019.1 |
| 20260904175518 | 69 | 225 | 2.0 | 6.0 | 0.00 | 0.00 | 0.00 | 65 | 1019.0 |
| 20260904175118 | 68 | 195 | 1.0 | 3.0 | 0.00 | 0.00 | 0.00 | 65 | 1019.0 |
| 20260904174718 | 68 | 330 | 2.0 | 5.0 | 0.00 | 0.00 | 0.00 | 67 | 1019.0 |
| 20260904174319 | 68 | 90 | 3.0 | 3.0 | 0.00 | 0.00 | 0.00 | 67 | 1019.1 |
| 20260904173918 | 68 | 4 | 5.0 | 5.0 | 0.00 | 0.00 | 0.00 | 68 | 1019.1 |
| 20260904173518 | 68 | 351 | 4.0 | 6.0 | 0.00 | 0.00 | 0.00 | 68 | 1019.1 |
| 20260904173117 | 67 | 0 | 3.0 | 3.0 | 0.00 | 0.00 | 0.00 | 68 | 1018.9 |
| 20260904172717 | 67 | 234 | 2.0 | 6.0 | 0.00 | 0.00 | 0.00 | 69 | 1019.0 |
| 20260904172318 | 67 | 315 | 0.0 | 4.0 | 0.00 | 0.00 | 0.00 | 70 | 1019.0 |
| 20260904171917 | 67 | 202 | 3.0 | 4.0 | 0.00 | 0.00 | 0.00 | 70 | 1019.0 |
| 20260904171517 | 67 | 135 | 0.0 | 3.0 | 0.00 | 0.00 | 0.00 | 71 | 1018.9 |
| 20260904171117 | 67 | 315 | 3.0 | 4.0 | 0.00 | 0.00 | 0.00 | 71 | 1019.1 |
| 20260904170717 | 67 | 18 | 3.0 | 4.0 | 0.00 | 0.00 | 0.00 | 70 | 1019.0 |
| 20260904170316 | 67 | 20 | 4.0 | 5.0 | 0.00 | 0.00 | 0.00 | 71 | 1019.0 |
| 20260904165916 | 66 | 67 | 2.0 | 4.0 | 0.00 | 0.00 | 0.00 | 72 | 1019.0 |
| 20260904165516 | 66 | 299 | 2.0 | 6.0 | 0.00 | 0.00 | 0.00 | 72 | 1019.0 |
| 20260904165116 | 66 | 0 | 2.0 | 4.0 | 0.00 | 0.00 | 0.00 | 73 | 1018.9 |
| 20260904164716 | 66 | 238 | 2.0 | 3.0 | 0.00 | 0.00 | 0.00 | 73 | 1019.0 |
| 20260904164316 | 66 | 315 | 1.0 | 5.0 | 0.00 | 0.00 | 0.00 | 74 | 1018.9 |
| 20260904163515 | 66 | 230 | 2.0 | 6.0 | 0.00 | 0.00 | 0.00 | 74 | 1018.9 |
| 20260904163115 | 66 | 225 | 4.0 | 7.0 | 0.00 | 0.00 | 0.00 | 74 | 1018.8 |
| 20260904162715 | 65 | 315 | 0.0 | 5.0 | 0.00 | 0.00 | 0.00 | 75 | 1018.7 |
| 20260904162315 | 65 | 225 | 1.0 | 4.0 | 0.00 | 0.00 | 0.00 | 75 | 1018.6 |
| 20260904161915 | 65 | 222 | 3.0 | 4.0 | 0.00 | 0.00 | 0.00 | 75 | 1018.7 |
| 20260904161515 | 65 | 315 | 2.0 | 9.0 | 0.00 | 0.00 | 0.00 | 75 | 1018.8 |
| 20260904161115 | 65 | 315 | 3.0 | 5.0 | 0.00 | 0.00 | 0.00 | 75 | 1018.8 |
| 20260904160714 | 65 | 270 | 1.0 | 7.0 | 0.00 | 0.00 | 0.00 | 76 | 1018.7 |
| 20260904160314 | 65 | 204 | 4.0 | 5.0 | 0.00 | 0.00 | 0.00 | 75 | 1018.8 |
| 20260904155914 | 64 | 312 | 4.0 | 5.0 | 0.00 | 0.00 | 0.00 | 76 | 1018.7 |
| 20260904155514 | 64 | 288 | 2.0 | 6.0 | 0.00 | 0.00 | 0.00 | 77 | 1018.6 |
| 20260904155114 | 64 | 351 | 4.0 | 4.0 | 0.00 | 0.00 | 0.00 | 77 | 1018.7 |
| 20260904154714 | 64 | 254 | 3.0 | 8.0 | 0.00 | 0.00 | 0.00 | 78 | 1018.7 |
| 20260904153913 | 64 | 267 | 3.0 | 6.0 | 0.00 | 0.00 | 0.00 | 78 | 1018.7 |
| 20260904153113 | 64 | 315 | 0.0 | 4.0 | 0.00 | 0.00 | 0.00 | 78 | 1018.7 |
| 20260904152713 | 64 | 265 | 1.0 | 4.0 | 0.00 | 0.00 | 0.00 | 78 | 1018.7 |
| 20260904152313 | 64 | 225 | 1.0 | 5.0 | 0.00 | 0.00 | 0.00 | 78 | 1018.6 |
| 20260904151513 | 64 | 236 | 3.0 | 5.0 | 0.00 | 0.00 | 0.00 | 78 | 1018.6 |
| 20260904151112 | 64 | 263 | 1.0 | 4.0 | 0.00 | 0.00 | 0.00 | 78 | 1018.6 |
| 20260904150712 | 64 | 270 | 4.0 | 4.0 | 0.00 | 0.00 | 0.00 | 78 | 1018.6 |
| 20260904150313 | 64 | 281 | 3.0 | 3.0 | 0.00 | 0.00 | 0.00 | 78 | 1018.5 |
| 20260904145513 | 64 | 297 | 1.0 | 3.0 | 0.00 | 0.00 | 0.00 | 78 | 1018.4 |
| 20260904145112 | 64 | 270 | 2.0 | 4.0 | 0.00 | 0.00 | 0.00 | 78 | 1018.4 |
| 20260904144712 | 64 | 337 | 1.0 | 3.0 | 0.00 | 0.00 | 0.00 | 78 | 1018.4 |
| 20260904144312 | 64 | 315 | 1.0 | 3.0 | 0.00 | 0.00 | 0.00 | 79 | 1018.4 |
| 20260904143911 | 64 | 357 | 2.0 | 3.0 | 0.00 | 0.00 | 0.00 | 78 | 1018.3 |
| 20260904143511 | 64 | 324 | 2.0 | 4.0 | 0.00 | 0.00 | 0.00 | 79 | 1018.2 |
| 20260904143111 | 64 | 306 | 1.0 | 3.0 | 0.00 | 0.00 | 0.00 | 79 | 1018.1 |
| 20260904142711 | 65 | 270 | 0.0 | 3.0 | 0.00 | 0.00 | 0.00 | 79 | 1018.1 |
| 20260904142311 | 65 | 315 | 1.0 | 3.0 | 0.00 | 0.00 | 0.00 | 79 | 1018.1 |
| 20260904141911 | 65 | 2 | 3.0 | 5.0 | 0.00 | 0.00 | 0.00 | 78 | 1018.1 |
| 20260904141110 | 65 | 279 | 2.0 | 4.0 | 0.00 | 0.00 | 0.00 | 78 | 1017.9 |
| 20260904140310 | 65 | 229 | 1.0 | 3.0 | 0.00 | 0.00 | 0.00 | 78 | 1017.8 |
| 20260904135910 | 65 | 274 | 2.0 | 3.0 | 0.00 | 0.00 | 0.00 | 78 | 1017.8 |
| 20260904135510 | 65 | 310 | 0.0 | 3.0 | 0.00 | 0.00 | 0.00 | 78 | 1017.8 |
| 20260904135110 | 65 | 315 | 0.0 | 3.0 | 0.00 | 0.00 | 0.00 | 78 | 1017.7 |
| 20260904134709 | 65 | 312 | 1.0 | 3.0 | 0.00 | 0.00 | 0.00 | 78 | 1017.6 |
| 20260904134309 | 65 | 225 | 3.0 | 3.0 | 0.00 | 0.00 | 0.00 | 78 | 1017.5 |
| 20260904133909 | 65 | 270 | 2.0 | 3.0 | 0.00 | 0.00 | 0.00 | 79 | 1017.5 |
| 20260904133510 | 65 | 180 | 2.0 | 2.0 | 0.00 | 0.00 | 0.00 | 79 | 1017.5 |
| 20260904133109 | 65 | 283 | 1.0 | 5.0 | 0.00 | 0.00 | 0.00 | 79 | 1017.5 |
| 20260904132709 | 65 | 225 | 1.0 | 8.0 | 0.00 | 0.00 | 0.00 | 78 | 1017.5 |
| 20260904132309 | 65 | 202 | 2.0 | 5.0 | 0.00 | 0.00 | 0.00 | 79 | 1017.4 |
| 20260904131908 | 65 | 222 | 3.0 | 4.0 | 0.00 | 0.00 | 0.00 | 79 | 1017.5 |
| 20260904131108 | 65 | 254 | 2.0 | 5.0 | 0.00 | 0.00 | 0.00 | 79 | 1017.3 |
| 20260904130708 | 65 | 225 | 2.0 | 3.0 | 0.00 | 0.00 | 0.00 | 79 | 1017.3 |
| 20260904130308 | 65 | 270 | 2.0 | 4.0 | 0.00 | 0.00 | 0.00 | 80 | 1017.3 |
| 20260904125908 | 65 | 256 | 1.0 | 4.0 | 0.00 | 0.00 | 0.00 | 79 | 1017.3 |
| 20260904125107 | 65 | 315 | 0.0 | 2.0 | 0.00 | 0.00 | 0.00 | 80 | 1017.3 |
| 20260904124707 | 65 | 315 | 1.0 | 3.0 | 0.00 | 0.00 | 0.00 | 80 | 1017.3 |
| 20260904124307 | 65 | 326 | 1.0 | 3.0 | 0.00 | 0.00 | 0.00 | 80 | 1017.2 |
| 20260904123907 | 65 | 328 | 1.0 | 3.0 | 0.00 | 0.00 | 0.00 | 80 | 1017.1 |
| 20260904123107 | 65 | 312 | 3.0 | 4.0 | 0.00 | 0.00 | 0.00 | 80 | 1017.2 |
| 20260904122707 | 65 | 285 | 3.0 | 4.0 | 0.00 | 0.00 | 0.00 | 80 | 1017.2 |
| 20260904122307 | 65 | 238 | 2.0 | 3.0 | 0.00 | 0.00 | 0.00 | 80 | 1017.2 |
| 20260904121906 | 65 | 315 | 1.0 | 4.0 | 0.00 | 0.00 | 0.00 | 80 | 1017.1 |
| 20260904121106 | 65 | 317 | 3.0 | 3.0 | 0.00 | 0.00 | 0.00 | 80 | 1017.2 |
| 20260904120706 | 65 | 270 | 1.0 | 3.0 | 0.00 | 0.00 | 0.00 | 79 | 1017.2 |
| 20260904120306 | 65 | 263 | 5.0 | 5.0 | 0.00 | 0.00 | 0.00 | 79 | 1017.2 |
| 20260904115906 | 65 | 292 | 1.0 | 4.0 | 0.00 | 0.00 | 0.00 | 80 | 1017.1 |
| 20260904115505 | 65 | 270 | 1.0 | 4.0 | 0.00 | 0.00 | 0.00 | 79 | 1017.2 |
| 20260904115105 | 65 | 218 | 0.0 | 5.0 | 0.00 | 0.00 | 0.00 | 79 | 1017.1 |
| 20260904114706 | 65 | 256 | 2.0 | 6.0 | 0.00 | 0.00 | 0.00 | 79 | 1017.1 |
| 20260904114305 | 65 | 279 | 1.0 | 4.0 | 0.00 | 0.00 | 0.00 | 79 | 1017.1 |
| 20260904113905 | 65 | 247 | 2.0 | 6.0 | 0.00 | 0.00 | 0.00 | 79 | 1017.0 |
| 20260904113506 | 65 | 281 | 1.0 | 4.0 | 0.00 | 0.00 | 0.00 | 79 | 1016.9 |
| 20260904113105 | 65 | 310 | 1.0 | 5.0 | 0.00 | 0.00 | 0.00 | 78 | 1017.0 |
| 20260904112705 | 65 | 270 | 2.0 | 5.0 | 0.00 | 0.00 | 0.00 | 78 | 1017.1 |
| 20260904112306 | 65 | 238 | 5.0 | 5.0 | 0.00 | 0.00 | 0.00 | 79 | 1017.0 |
| 20260904111904 | 65 | 243 | 1.0 | 4.0 | 0.00 | 0.00 | 0.00 | 78 | 1017.1 |
| 20260904111505 | 65 | 281 | 2.0 | 6.0 | 0.00 | 0.00 | 0.00 | 78 | 1017.0 |
| 20260904111104 | 65 | 297 | 1.0 | 4.0 | 0.00 | 0.00 | 0.00 | 79 | 1017.0 |
| 20260904110704 | 66 | 270 | 3.0 | 7.0 | 0.00 | 0.00 | 0.00 | 78 | 1017.0 |
| 20260904110304 | 66 | 202 | 7.0 | 7.0 | 0.00 | 0.00 | 0.00 | 78 | 1016.9 |
| 20260904105904 | 66 | 211 | 3.0 | 6.0 | 0.00 | 0.00 | 0.00 | 77 | 1017.0 |
| 20260904105504 | 66 | 315 | 2.0 | 6.0 | 0.00 | 0.00 | 0.00 | 78 | 1016.9 |
| 20260904105103 | 66 | 247 | 2.0 | 4.0 | 0.00 | 0.00 | 0.00 | 78 | 1016.9 |
| 20260904104303 | 66 | 212 | 3.0 | 4.0 | 0.00 | 0.00 | 0.00 | 77 | 1016.8 |
| 20260904103904 | 66 | 211 | 1.0 | 5.0 | 0.00 | 0.00 | 0.00 | 77 | 1016.9 |
| 20260904103503 | 66 | 262 | 3.0 | 5.0 | 0.00 | 0.00 | 0.00 | 76 | 1016.9 |
| 20260904103103 | 66 | 243 | 5.0 | 6.0 | 0.00 | 0.00 | 0.00 | 77 | 1016.8 |
| 20260904102702 | 66 | 265 | 1.0 | 5.0 | 0.00 | 0.00 | 0.00 | 77 | 1016.8 |
| 20260904102306 | 66 | 274 | 2.0 | 4.0 | 0.00 | 0.00 | 0.00 | 77 | 1016.8 |
| 20260904101902 | 66 | 250 | 4.0 | 4.0 | 0.00 | 0.00 | 0.00 | 77 | 1016.7 |
| 20260904101502 | 66 | 297 | 2.0 | 4.0 | 0.00 | 0.00 | 0.00 | 77 | 1016.7 |
| 20260904101102 | 66 | 252 | 2.0 | 4.0 | 0.00 | 0.00 | 0.00 | 77 | 1016.6 |
| 20260904100702 | 66 | 310 | 2.0 | 6.0 | 0.00 | 0.00 | 0.00 | 77 | 1016.5 |
| 20260904100302 | 66 | 309 | 4.0 | 5.0 | 0.00 | 0.00 | 0.00 | 77 | 1016.6 |
| 20260904095901 | 66 | 300 | 1.0 | 5.0 | 0.00 | 0.00 | 0.00 | 77 | 1016.5 |
| 20260904095501 | 66 | 207 | 5.0 | 5.0 | 0.00 | 0.00 | 0.00 | 77 | 1016.5 |
| 20260904095101 | 66 | 319 | 2.0 | 5.0 | 0.00 | 0.00 | 0.00 | 77 | 1016.5 |
| 20260904094701 | 67 | 317 | 4.0 | 4.0 | 0.00 | 0.00 | 0.00 | 77 | 1016.5 |
| 20260904094301 | 67 | 263 | 2.0 | 5.0 | 0.00 | 0.00 | 0.00 | 76 | 1016.5 |
| 20260904093501 | 67 | 311 | 2.0 | 3.0 | 0.00 | 0.00 | 0.00 | 76 | 1016.4 |
| 20260904093100 | 67 | 292 | 2.0 | 5.0 | 0.00 | 0.00 | 0.00 | 77 | 1016.4 |
| 20260904092702 | 67 | 317 | 1.0 | 4.0 | 0.00 | 0.00 | 0.00 | 76 | 1016.4 |
| 20260904092300 | 67 | 0 | 1.0 | 3.0 | 0.00 | 0.00 | 0.00 | 77 | 1016.4 |
| 20260904091900 | 67 | 315 | 2.0 | 3.0 | 0.00 | 0.00 | 0.00 | 77 | 1016.5 |
| 20260904091500 | 67 | 315 | 1.0 | 3.0 | 0.00 | 0.00 | 0.00 | 77 | 1016.5 |
| 20260904091100 | 67 | 315 | 1.0 | 2.0 | 0.00 | 0.00 | 0.00 | 77 | 1016.5 |
| 20260904090700 | 67 | 290 | 3.0 | 5.0 | 0.00 | 0.00 | 0.00 | 77 | 1016.5 |
| 20260904090259 | 67 | 227 | 1.0 | 5.0 | 0.00 | 0.00 | 0.00 | 77 | 1016.5 |
| 20260904085459 | 67 | 270 | 0.0 | 2.0 | 0.00 | 0.00 | 0.00 | 77 | 1016.6 |
| 20260904085059 | 67 | 315 | 2.0 | 3.0 | 0.00 | 0.00 | 0.00 | 77 | 1016.6 |
| 20260904084659 | 67 | 317 | 1.0 | 3.0 | 0.00 | 0.00 | 0.00 | 77 | 1016.6 |
| 20260904084259 | 67 | 306 | 2.0 | 3.0 | 0.00 | 0.00 | 0.00 | 77 | 1016.6 |
| 20260904083859 | 67 | 261 | 0.0 | 3.0 | 0.00 | 0.00 | 0.00 | 77 | 1016.6 |
| 20260904083458 | 67 | 270 | 1.0 | 2.0 | 0.00 | 0.00 | 0.00 | 78 | 1016.6 |
| 20260904083058 | 67 | 180 | 0.0 | 3.0 | 0.00 | 0.00 | 0.00 | 78 | 1016.6 |
| 20260904082658 | 67 | 308 | 2.0 | 3.0 | 0.00 | 0.00 | 0.00 | 78 | 1016.6 |
| 20260904082258 | 67 | 328 | 2.0 | 3.0 | 0.00 | 0.00 | 0.00 | 78 | 1016.6 |
| 20260904081858 | 67 | 279 | 1.0 | 2.0 | 0.00 | 0.00 | 0.00 | 78 | 1016.7 |
| 20260904081458 | 67 | 315 | 1.0 | 3.0 | 0.00 | 0.00 | 0.00 | 78 | 1016.7 |
| 20260904081058 | 67 | 335 | 1.0 | 4.0 | 0.00 | 0.00 | 0.00 | 78 | 1016.7 |
| 20260904080657 | 67 | 315 | 2.0 | 3.0 | 0.00 | 0.00 | 0.00 | 78 | 1016.8 |
| 20260904080257 | 67 | 0 | 3.0 | 4.0 | 0.00 | 0.00 | 0.00 | 78 | 1016.7 |
| 20260904075857 | 67 | 353 | 2.0 | 5.0 | 0.00 | 0.00 | 0.00 | 78 | 1016.7 |
| 20260904075457 | 67 | 0 | 3.0 | 5.0 | 0.00 | 0.00 | 0.00 | 78 | 1016.6 |
| 20260904075057 | 67 | 346 | 3.0 | 5.0 | 0.00 | 0.00 | 0.00 | 79 | 1016.7 |
| 20260904074657 | 67 | 315 | 3.0 | 4.0 | 0.00 | 0.00 | 0.00 | 78 | 1016.6 |
| 20260904074257 | 67 | 353 | 3.0 | 4.0 | 0.00 | 0.00 | 0.00 | 78 | 1016.6 |
| 20260904073456 | 67 | 15 | 2.0 | 4.0 | 0.00 | 0.00 | 0.00 | 79 | 1016.7 |
| 20260904073056 | 67 | 335 | 4.0 | 4.0 | 0.00 | 0.00 | 0.00 | 79 | 1016.6 |
| 20260904072656 | 67 | 319 | 2.0 | 6.0 | 0.00 | 0.00 | 0.00 | 79 | 1016.7 |
| 20260904072256 | 67 | 310 | 4.0 | 9.0 | 0.00 | 0.00 | 0.00 | 79 | 1016.6 |
| 20260904071856 | 67 | 13 | 4.0 | 6.0 | 0.00 | 0.00 | 0.00 | 79 | 1016.6 |
| 20260904071456 | 68 | 303 | 3.0 | 6.0 | 0.00 | 0.00 | 0.00 | 79 | 1016.7 |
| 20260904071055 | 68 | 337 | 5.0 | 6.0 | 0.00 | 0.00 | 0.00 | 79 | 1016.8 |
| 20260904070655 | 68 | 317 | 8.0 | 9.0 | 0.00 | 0.00 | 0.00 | 79 | 1016.7 |
| 20260904065855 | 69 | 353 | 8.0 | 8.0 | 0.00 | 0.00 | 0.00 | 79 | 1016.6 |
| 20260904065455 | 69 | 357 | 5.0 | 9.0 | 0.00 | 0.00 | 0.00 | 78 | 1016.5 |
| 20260904065055 | 69 | 315 | 5.0 | 7.0 | 0.00 | 0.00 | 0.00 | 78 | 1016.4 |
| 20260904064847 | 71 | 15 | 3.0 | 4.0 | 0.00 | 0.00 | 0.00 | 75 | 1016.3 |
| 20260904064655 | 69 | 319 | 5.0 | 7.0 | 0.00 | 0.00 | 0.00 | 77 | 1016.4 |
| 20260904064255 | 69 | 308 | 4.0 | 5.0 | 0.00 | 0.00 | 0.00 | 77 | 1016.4 |
| 20260904063854 | 70 | 315 | 4.0 | 5.0 | 0.00 | 0.00 | 0.00 | 77 | 1016.4 |
| 20260904063454 | 70 | 0 | 1.0 | 3.0 | 0.00 | 0.00 | 0.00 | 76 | 1016.3 |
| 20260904063054 | 70 | 38 | 2.0 | 4.0 | 0.00 | 0.00 | 0.00 | 76 | 1016.3 |
| 20260904062654 | 70 | 328 | 2.0 | 3.0 | 0.00 | 0.00 | 0.00 | 76 | 1016.3 |
| 20260904062254 | 70 | 42 | 2.0 | 3.0 | 0.00 | 0.00 | 0.00 | 76 | 1016.2 |
| 20260904061854 | 70 | 31 | 2.0 | 3.0 | 0.00 | 0.00 | 0.00 | 75 | 1016.1 |
| 20260904061453 | 70 | 45 | 1.0 | 4.0 | 0.00 | 0.00 | 0.00 | 75 | 1016.1 |
| 20260904061053 | 70 | 67 | 2.0 | 4.0 | 0.00 | 0.00 | 0.00 | 75 | 1016.2 |
| 20260904060654 | 70 | 326 | 0.0 | 3.0 | 0.00 | 0.00 | 0.00 | 76 | 1016.1 |
| 20260904060253 | 70 | 22 | 2.0 | 5.0 | 0.00 | 0.00 | 0.00 | 75 | 1016.2 |
| 20260904055853 | 70 | 2 | 2.0 | 4.0 | 0.00 | 0.00 | 0.00 | 75 | 1016.1 |
| 20260904055453 | 70 | 11 | 3.0 | 5.0 | 0.00 | 0.00 | 0.00 | 75 | 1016.2 |
| 20260904055053 | 70 | 357 | 2.0 | 4.0 | 0.00 | 0.00 | 0.00 | 75 | 1016.1 |
| 20260904054653 | 70 | 348 | 1.0 | 3.0 | 0.00 | 0.00 | 0.00 | 75 | 1016.1 |
| 20260904054253 | 70 | 0 | 1.0 | 3.0 | 0.00 | 0.00 | 0.00 | 75 | 1016.2 |
| 20260904053853 | 70 | 337 | 2.0 | 3.0 | 0.00 | 0.00 | 0.00 | 75 | 1016.1 |
| 20260904053453 | 71 | 355 | 3.0 | 4.0 | 0.00 | 0.00 | 0.00 | 75 | 1016.3 |
| 20260904053053 | 71 | 6 | 2.0 | 3.0 | 0.00 | 0.00 | 0.00 | 75 | 1016.3 |
| 20260904052652 | 71 | 351 | 2.0 | 4.0 | 0.00 | 0.00 | 0.00 | 75 | 1016.4 |
| 20260904052252 | 71 | 15 | 3.0 | 4.0 | 0.00 | 0.00 | 0.00 | 75 | 1016.3 |
| 20260904051852 | 71 | 9 | 3.0 | 4.0 | 0.00 | 0.00 | 0.00 | 74 | 1016.5 |
| 20260904051452 | 71 | 350 | 2.0 | 9.0 | 0.00 | 0.00 | 0.00 | 74 | 1016.5 |
| 20260904051051 | 71 | 303 | 3.0 | 5.0 | 0.00 | 0.00 | 0.00 | 74 | 1016.4 |
| 20260904050651 | 71 | 0 | 3.0 | 4.0 | 0.00 | 0.00 | 0.00 | 74 | 1016.5 |
| 20260904050251 | 72 | 18 | 2.0 | 3.0 | 0.00 | 0.00 | 0.00 | 73 | 1016.5 |
| 20260904045851 | 72 | 315 | 2.0 | 5.0 | 0.00 | 0.00 | 0.00 | 73 | 1016.5 |
| 20260904045451 | 72 | 0 | 3.0 | 4.0 | 0.00 | 0.00 | 0.00 | 73 | 1016.5 |
| 20260904045050 | 72 | 42 | 4.0 | 6.0 | 0.00 | 0.00 | 0.00 | 72 | 1016.5 |
| 20260904044650 | 72 | 40 | 4.0 | 6.0 | 0.00 | 0.00 | 0.00 | 72 | 1016.4 |
| 20260904044250 | 72 | 333 | 6.0 | 6.0 | 0.00 | 0.00 | 0.00 | 72 | 1016.5 |
| 20260904043852 | 72 | 0 | 2.0 | 3.0 | 0.00 | 0.00 | 0.00 | 72 | 1016.5 |
| 20260904043450 | 72 | 58 | 2.0 | 5.0 | 0.00 | 0.00 | 0.00 | 72 | 1016.5 |
| 20260904043050 | 72 | 42 | 4.0 | 5.0 | 0.00 | 0.00 | 0.00 | 71 | 1016.6 |
| 20260904042650 | 72 | 321 | 3.0 | 3.0 | 0.00 | 0.00 | 0.00 | 71 | 1016.6 |
| 20260904042249 | 72 | 0 | 1.0 | 5.0 | 0.00 | 0.00 | 0.00 | 71 | 1016.5 |
| 20260904041850 | 72 | 36 | 4.0 | 4.0 | 0.00 | 0.00 | 0.00 | 71 | 1016.5 |
| 20260904041449 | 72 | 330 | 3.0 | 5.0 | 0.00 | 0.00 | 0.00 | 71 | 1016.4 |
| 20260904040649 | 72 | 13 | 3.0 | 8.0 | 0.00 | 0.00 | 0.00 | 70 | 1016.3 |
| 20260904040249 | 72 | 342 | 3.0 | 5.0 | 0.00 | 0.00 | 0.00 | 69 | 1016.3 |
| 20260904035849 | 72 | 324 | 2.0 | 7.0 | 0.00 | 0.00 | 0.00 | 69 | 1016.2 |
| 20260904035448 | 72 | 279 | 2.0 | 3.0 | 0.00 | 0.00 | 0.00 | 68 | 1016.3 |
| 20260904035048 | 73 | 308 | 1.0 | 4.0 | 0.00 | 0.00 | 0.00 | 69 | 1016.2 |
| 20260904034648 | 73 | 322 | 3.0 | 7.0 | 0.00 | 0.00 | 0.00 | 69 | 1016.0 |
| 20260904034248 | 73 | 315 | 1.0 | 5.0 | 0.00 | 0.00 | 0.00 | 68 | 1016.1 |
| 20260904033448 | 73 | 4 | 3.0 | 6.0 | 0.00 | 0.00 | 0.00 | 68 | 1016.1 |
| 20260904032244 | 74 | 2 | 6.0 | 6.0 | 0.00 | 0.00 | 0.00 | 67 | 1016.0 |
| 20260904031844 | 74 | 290 | 4.0 | 7.0 | 0.00 | 0.00 | 0.00 | 66 | 1016.0 |
| 20260904031444 | 74 | 57 | 2.0 | 5.0 | 0.00 | 0.00 | 0.00 | 66 | 1015.9 |
| 20260904031044 | 74 | 355 | 4.0 | 6.0 | 0.00 | 0.00 | 0.00 | 65 | 1015.9 |
| 20260904030644 | 74 | 30 | 3.0 | 7.0 | 0.00 | 0.00 | 0.00 | 64 | 1015.8 |
| 20260904025843 | 75 | 321 | 2.0 | 6.0 | 0.00 | 0.00 | 0.00 | 64 | 1015.8 |
| 20260904025443 | 75 | 4 | 4.0 | 6.0 | 0.00 | 0.00 | 0.00 | 63 | 1015.7 |
| 20260904025043 | 75 | 337 | 3.0 | 4.0 | 0.00 | 0.00 | 0.00 | 63 | 1015.7 |
| 20260904024643 | 76 | 315 | 1.0 | 6.0 | 0.00 | 0.00 | 0.00 | 63 | 1015.6 |
| 20260904024243 | 76 | 324 | 5.0 | 8.0 | 0.00 | 0.00 | 0.00 | 62 | 1015.8 |
| 20260904023843 | 76 | 310 | 3.0 | 6.0 | 0.00 | 0.00 | 0.00 | 62 | 1015.7 |
| 20260904023042 | 77 | 325 | 5.0 | 7.0 | 0.00 | 0.00 | 0.00 | 61 | 1015.8 |
| 20260904022642 | 77 | 323 | 4.0 | 6.0 | 0.00 | 0.00 | 0.00 | 61 | 1015.6 |
| 20260904022242 | 78 | 90 | 3.0 | 6.0 | 0.00 | 0.00 | 0.00 | 59 | 1015.6 |
| 20260904021842 | 78 | 328 | 3.0 | 8.0 | 0.00 | 0.00 | 0.00 | 59 | 1015.8 |
| 20260904021442 | 78 | 274 | 2.0 | 4.0 | 0.00 | 0.00 | 0.00 | 58 | 1015.7 |
| 20260904021042 | 79 | 0 | 2.0 | 7.0 | 0.00 | 0.00 | 0.00 | 58 | 1015.7 |
| 20260904020642 | 79 | 0 | 3.0 | 8.0 | 0.00 | 0.00 | 0.00 | 58 | 1015.8 |
| 20260904020241 | 79 | 333 | 5.0 | 8.0 | 0.00 | 0.00 | 0.00 | 57 | 1015.7 |
| 20260904015841 | 80 | 279 | 5.0 | 7.0 | 0.00 | 0.00 | 0.00 | 57 | 1015.8 |
| 20260904015041 | 81 | 225 | 3.0 | 6.0 | 0.00 | 0.00 | 0.00 | 55 | 1015.6 |
| 20260904014641 | 81 | 315 | 3.0 | 8.0 | 0.00 | 0.00 | 0.00 | 55 | 1015.7 |
| 20260904014241 | 82 | 272 | 6.0 | 8.0 | 0.00 | 0.00 | 0.00 | 54 | 1015.6 |
| 20260904013841 | 82 | 328 | 4.0 | 9.0 | 0.00 | 0.00 | 0.00 | 54 | 1015.6 |
| 20260904013440 | 82 | 321 | 6.0 | 8.0 | 0.00 | 0.00 | 0.00 | 54 | 1015.6 |
| 20260904013041 | 82 | 344 | 4.0 | 7.0 | 0.00 | 0.00 | 0.00 | 54 | 1015.6 |
| 20260904012640 | 82 | 324 | 4.0 | 8.0 | 0.00 | 0.00 | 0.00 | 54 | 1015.6 |
| 20260904012240 | 82 | 9 | 6.0 | 9.0 | 0.00 | 0.00 | 0.00 | 54 | 1015.7 |
| 20260904011840 | 83 | 346 | 5.0 | 9.0 | 0.00 | 0.00 | 0.00 | 54 | 1015.7 |
| 20260904011040 | 83 | 2 | 7.0 | 7.0 | 0.00 | 0.00 | 0.00 | 54 | 1015.6 |
| 20260904010639 | 82 | 24 | 6.0 | 7.0 | 0.00 | 0.00 | 0.00 | 54 | 1015.6 |
| 20260904010239 | 82 | 14 | 4.0 | 8.0 | 0.00 | 0.00 | 0.00 | 54 | 1015.6 |
| 20260904005839 | 82 | 306 | 3.0 | 7.0 | 0.00 | 0.00 | 0.00 | 54 | 1015.6 |
| 20260904005439 | 83 | 335 | 6.0 | 8.0 | 0.00 | 0.00 | 0.00 | 54 | 1015.6 |
| 20260904005039 | 82 | 312 | 7.0 | 7.0 | 0.00 | 0.00 | 0.00 | 54 | 1015.5 |
| 20260904004639 | 82 | 265 | 6.0 | 7.0 | 0.00 | 0.00 | 0.00 | 54 | 1015.5 |
| 20260904004239 | 82 | 315 | 2.0 | 7.0 | 0.00 | 0.00 | 0.00 | 54 | 1015.5 |
| 20260904003838 | 83 | 315 | 1.0 | 5.0 | 0.00 | 0.00 | 0.00 | 54 | 1015.4 |
| 20260904003438 | 83 | 355 | 6.0 | 6.0 | 0.00 | 0.00 | 0.00 | 53 | 1015.6 |
| 20260904003038 | 83 | 321 | 2.0 | 7.0 | 0.00 | 0.00 | 0.00 | 53 | 1015.5 |
| 20260904002638 | 83 | 288 | 3.0 | 9.0 | 0.00 | 0.00 | 0.00 | 53 | 1015.4 |
| 20260904002238 | 83 | 348 | 5.0 | 7.0 | 0.00 | 0.00 | 0.00 | 53 | 1015.5 |
| 20260904001838 | 83 | 319 | 4.0 | 8.0 | 0.00 | 0.00 | 0.00 | 52 | 1015.5 |
| 20260904001439 | 83 | 315 | 3.0 | 5.0 | 0.00 | 0.00 | 0.00 | 52 | 1015.5 |
| 20260904001038 | 83 | 267 | 3.0 | 6.0 | 0.00 | 0.00 | 0.00 | 51 | 1015.5 |
| 20260904000637 | 83 | 267 | 2.0 | 7.0 | 0.00 | 0.00 | 0.00 | 52 | 1015.6 |
| 20260904000237 | 83 | 265 | 4.0 | 6.0 | 0.00 | 0.00 | 0.00 | 52 | 1015.6 |
| 20260903235437 | 83 | 320 | 2.0 | 5.0 | 0.00 | 0.00 | 0.00 | 52 | 1015.6 |
| 20260903234237 | 83 | 211 | 2.0 | 8.0 | 0.00 | 0.00 | 0.00 | 52 | 1015.5 |
| 20260903233836 | 83 | 6 | 5.0 | 5.0 | 0.00 | 0.00 | 0.00 | 51 | 1015.5 |
| 20260903233437 | 83 | 324 | 2.0 | 6.0 | 0.00 | 0.00 | 0.00 | 53 | 1015.7 |
| 20260903233036 | 83 | 282 | 1.0 | 6.0 | 0.00 | 0.00 | 0.00 | 53 | 1015.7 |
| 20260903232636 | 83 | 0 | 4.0 | 8.0 | 0.00 | 0.00 | 0.00 | 53 | 1015.6 |
| 20260903232236 | 82 | 335 | 5.0 | 5.0 | 0.00 | 0.00 | 0.00 | 53 | 1015.8 |
| 20260903231836 | 82 | 63 | 1.0 | 4.0 | 0.00 | 0.00 | 0.00 | 53 | 1015.7 |
| 20260903231435 | 82 | 45 | 1.0 | 7.0 | 0.00 | 0.00 | 0.00 | 53 | 1015.8 |
| 20260903231035 | 82 | 315 | 6.0 | 7.0 | 0.00 | 0.00 | 0.00 | 53 | 1016.0 |
| 20260903230635 | 81 | 135 | 2.0 | 8.0 | 0.00 | 0.00 | 0.00 | 53 | 1016.0 |
| 20260903230236 | 81 | 315 | 0.0 | 3.0 | 0.00 | 0.00 | 0.00 | 54 | 1016.0 |
| 20260903225435 | 81 | 0 | 3.0 | 4.0 | 0.00 | 0.00 | 0.00 | 53 | 1016.1 |
| 20260903224635 | 81 | 2 | 7.0 | 7.0 | 0.00 | 0.00 | 0.00 | 53 | 1016.3 |
| 20260903224234 | 82 | 218 | 2.0 | 5.0 | 0.00 | 0.00 | 0.00 | 52 | 1016.5 |
| 20260903223834 | 82 | 229 | 3.0 | 7.0 | 0.00 | 0.00 | 0.00 | 53 | 1016.5 |
| 20260903223434 | 82 | 339 | 5.0 | 6.0 | 0.00 | 0.00 | 0.00 | 52 | 1016.4 |
| 20260903223034 | 82 | 211 | 2.0 | 6.0 | 0.00 | 0.00 | 0.00 | 53 | 1016.4 |
| 20260903222634 | 82 | 315 | 3.0 | 7.0 | 0.00 | 0.00 | 0.00 | 52 | 1016.5 |
| 20260903222234 | 82 | 31 | 3.0 | 8.0 | 0.00 | 0.00 | 0.00 | 53 | 1016.5 |
| 20260903221834 | 82 | 355 | 3.0 | 5.0 | 0.00 | 0.00 | 0.00 | 53 | 1016.6 |
| 20260903221433 | 82 | 216 | 2.0 | 10.0 | 0.00 | 0.00 | 0.00 | 52 | 1016.6 |
| 20260903221033 | 81 | 240 | 5.0 | 8.0 | 0.00 | 0.00 | 0.00 | 52 | 1016.7 |
| 20260903220233 | 81 | 321 | 6.0 | 13.0 | 0.00 | 0.00 | 0.00 | 53 | 1016.8 |
| 20260903215833 | 81 | 346 | 3.0 | 5.0 | 0.00 | 0.00 | 0.00 | 54 | 1016.9 |
| 20260903215433 | 81 | 225 | 1.0 | 5.0 | 0.00 | 0.00 | 0.00 | 54 | 1016.8 |
| 20260903215033 | 81 | 319 | 3.0 | 3.0 | 0.00 | 0.00 | 0.00 | 53 | 1016.9 |
| 20260903214633 | 81 | 301 | 2.0 | 4.0 | 0.00 | 0.00 | 0.00 | 53 | 1017.0 |
| 20260903214233 | 81 | 222 | 6.0 | 7.0 | 0.00 | 0.00 | 0.00 | 53 | 1016.9 |
| 20260903213833 | 81 | 283 | 1.0 | 5.0 | 0.00 | 0.00 | 0.00 | 54 | 1017.0 |
| 20260903213033 | 81 | 306 | 3.0 | 6.0 | 0.00 | 0.00 | 0.00 | 54 | 1017.1 |
| 20260903212632 | 80 | 216 | 4.0 | 9.0 | 0.00 | 0.00 | 0.00 | 54 | 1017.0 |